Date String (YYYY-MM-DD hh:mm:ss) UTC,Instrument flags,absolute air pressure of the measurement (hPa),sample flow rate (lpm),inlet stack bypass flow (lpm),air temperature of the measurement (°C),ambient temperature measured by the external sensor (°C),aerosol sample conditioner tube jacket temperature (°C),OPC LED temperature (°C),internal box temperature (°C),relative humidity of the measurement (%),span deviation,mass concentration of particles derived from Lorenz-Mie calculation of OPC scattering (μg/m³),mass concentration of particles derived from Lorenz-Mie calculation of OPC scattering (μg/m³),mass concentration of particles derived from Lorenz-Mie calculation of OPC scattering (μg/m³)
DateTimeUTC,F1_M11,P_M11,Q1_M11,Q2_M11,T1_M11,T2_M11,T3_M11,T4_M11,T5_M11,U1_M11,ZSPAN_M11,X0_M11,X2_M11,X1_M11
2024-05-06 05:00:00,SystemResetWarning,0813.0,5.00,000.00,024.6,023.0,000.0,033.1,026.1,016.3,0000.0,0009.99,0003.81,0002.52
2024-05-06 05:01:00,SystemResetWarning,0813.0,5.00,000.00,024.6,023.2,000.0,033.1,026.2,016.3,0000.0,0010.03,0003.84,0002.54
2024-05-06 05:02:00,SystemResetWarning,0813.0,5.01,000.00,024.6,023.4,000.0,033.0,026.2,016.5,0000.0,0010.14,0003.88,0002.58
2024-05-06 05:03:00,SystemResetWarning,0812.9,5.00,000.00,024.6,023.6,000.0,033.0,026.3,016.4,0000.0,0010.26,0003.91,0002.62
2024-05-06 05:04:00,SystemResetWarning,0813.0,5.00,000.00,024.7,023.8,000.0,033.0,026.4,016.1,0000.0,0010.72,0003.96,0002.66
2024-05-06 05:05:00,SystemResetWarning,0813.0,4.99,000.00,024.7,023.9,000.0,033.0,026.5,016.4,0000.0,0011.20,0004.03,0002.67
2024-05-06 05:06:00,SystemResetWarning,0813.0,5.00,000.00,024.7,024.0,000.0,033.0,026.5,016.5,0000.0,0012.11,0004.14,0002.70
2024-05-06 05:07:00,SystemResetWarning,0813.0,4.99,000.00,024.8,024.1,000.0,033.1,026.6,016.4,0000.0,0012.39,0004.18,0002.70
2024-05-06 05:08:00,SystemResetWarning,0813.0,5.00,000.00,024.8,024.2,000.0,033.1,026.6,016.1,0000.0,0012.55,0004.20,0002.69
2024-05-06 05:09:00,SystemResetWarning,0813.0,5.00,000.00,024.9,024.3,000.0,033.1,026.7,016.4,0000.0,0012.06,0004.11,0002.66
2024-05-06 05:10:00,SystemResetWarning,0813.0,5.00,000.00,024.9,024.3,000.0,033.1,026.7,016.2,0000.0,0011.51,0004.07,0002.63
2024-05-06 05:11:00,SystemResetWarning,0813.0,5.00,000.00,024.9,024.4,000.0,033.1,026.7,016.3,0000.0,0010.95,0004.04,0002.60
2024-05-06 05:12:00,SystemResetWarning,0813.0,5.01,000.00,025.0,024.4,000.0,033.2,026.8,016.2,0000.0,0011.28,0004.07,0002.60
2024-05-06 05:13:00,SystemResetWarning,0813.0,5.00,000.00,025.0,024.5,000.0,033.2,026.8,016.0,0000.0,0011.50,0004.08,0002.60
2024-05-06 05:14:00,SystemResetWarning,0813.0,5.00,000.00,025.0,024.5,000.0,033.2,026.9,015.9,0000.0,0012.03,0004.04,0002.56
2024-05-06 05:15:00,SystemResetWarning,0813.0,4.99,000.00,025.1,024.5,000.0,033.2,026.9,015.9,0000.0,0012.45,0004.10,0002.53
2024-05-06 05:16:00,SystemResetWarning,0813.0,5.00,000.00,025.1,024.6,000.0,033.3,026.9,015.6,0000.0,0011.44,0004.05,0002.53
2024-05-06 05:17:00,SystemResetWarning,0813.0,5.00,000.00,025.1,024.6,000.0,033.3,026.9,015.7,0000.0,0011.17,0003.95,0002.49
2024-05-06 05:18:00,SystemResetWarning,0813.0,5.01,000.00,025.1,024.6,000.0,033.3,027.0,015.6,0000.0,0011.97,0003.88,0002.46
2024-05-06 05:19:00,SystemResetWarning,0813.0,5.00,000.00,025.2,024.6,000.0,033.3,027.0,015.4,0000.0,0012.37,0003.84,0002.44
2024-05-06 05:20:00,SystemResetWarning,0813.0,5.00,000.00,025.2,024.7,000.0,033.4,027.1,015.5,0000.0,0012.39,0003.89,0002.45
2024-05-06 05:21:00,SystemResetWarning,0813.0,5.01,000.00,025.2,024.7,000.0,033.4,027.1,015.5,0000.0,0012.56,0003.95,0002.47
2024-05-06 05:22:00,SystemResetWarning,0813.0,5.01,000.00,025.3,024.7,000.0,033.4,027.1,015.3,0000.0,0012.58,0003.95,0002.49
2024-05-06 05:23:00,SystemResetWarning,0813.0,5.00,000.00,025.3,024.8,000.0,033.5,027.1,015.5,0000.0,0012.57,0003.91,0002.47
2024-05-06 05:24:00,SystemResetWarning,0813.0,4.99,000.00,025.3,024.8,000.0,033.5,027.1,015.6,0000.0,0012.40,0003.88,0002.45
2024-05-06 05:25:00,SystemResetWarning,0813.0,4.99,000.00,025.3,024.8,000.0,033.5,027.2,015.6,0000.0,0012.73,0003.91,0002.45
2024-05-06 05:26:00,SystemResetWarning,0813.0,5.00,000.00,025.4,024.8,000.0,033.5,027.2,015.8,0000.0,0012.25,0003.89,0002.47
2024-05-06 05:27:00,SystemResetWarning,0813.0,5.02,000.00,025.4,024.9,000.0,033.6,027.2,015.9,0000.0,0012.53,0003.92,0002.49
2024-05-06 05:28:00,SystemResetWarning,0813.0,5.00,000.00,025.4,024.9,000.0,033.6,027.3,015.9,0000.0,0012.15,0003.97,0002.52
2024-05-06 05:29:00,SystemResetWarning,0812.9,4.99,000.00,025.5,024.9,000.0,033.6,027.3,015.9,0000.0,0011.14,0004.01,0002.53
2024-05-06 05:30:00,SystemResetWarning,0812.9,4.99,000.00,025.5,024.9,000.0,033.6,027.3,015.7,0000.0,0010.56,0004.03,0002.53
2024-05-06 05:31:00,SystemResetWarning,0812.9,5.00,000.00,025.5,025.0,000.0,033.7,027.3,015.5,0000.0,0010.72,0004.08,0002.54
2024-05-06 05:32:00,SystemResetWarning,0812.8,5.00,000.00,025.5,025.0,000.0,033.7,027.4,015.5,0000.0,0010.79,0004.09,0002.54
2024-05-06 05:33:00,SystemResetWarning,0812.8,5.00,000.00,025.6,025.0,000.0,033.7,027.4,015.4,0000.0,0011.10,0004.12,0002.55
2024-05-06 05:34:00,SystemResetWarning,0812.8,5.01,000.00,025.6,025.0,000.0,033.7,027.4,015.5,0000.0,0011.39,0004.16,0002.55
2024-05-06 05:35:00,SystemResetWarning,0812.8,5.00,000.00,025.6,025.0,000.0,033.7,027.4,015.4,0000.0,0011.19,0004.17,0002.55
2024-05-06 05:36:00,SystemResetWarning,0812.8,5.01,000.00,025.6,025.0,000.0,033.8,027.4,015.3,0000.0,0010.54,0004.15,0002.54
2024-05-06 05:37:00,SystemResetWarning,0812.8,5.00,000.00,025.6,025.0,000.0,033.8,027.4,015.2,0000.0,0010.44,0004.13,0002.53
2024-05-06 05:38:00,SystemResetWarning,0812.7,4.99,000.00,025.6,025.1,000.0,033.8,027.5,015.1,0000.0,0010.33,0004.11,0002.53
2024-05-06 05:39:00,SystemResetWarning,0812.7,5.00,000.00,025.7,025.1,000.0,033.9,027.5,015.2,0000.0,0010.16,0004.07,0002.51
2024-05-06 05:40:00,SystemResetWarning,0812.8,5.00,000.00,025.7,025.1,000.0,033.9,027.5,015.3,0000.0,0009.92,0004.03,0002.50
2024-05-06 05:41:00,SystemResetWarning,0812.7,5.00,000.00,025.7,025.1,000.0,033.9,027.5,015.2,0000.0,0010.12,0004.05,0002.50
2024-05-06 05:42:00,SystemResetWarning,0812.7,5.00,000.00,025.7,025.1,000.0,033.9,027.5,015.2,0000.0,0010.30,0003.95,0002.48
2024-05-06 05:43:00,SystemResetWarning,0812.7,5.01,000.00,025.7,025.1,000.0,033.9,027.5,015.3,0000.0,0010.07,0003.86,0002.45
2024-05-06 05:44:00,SystemResetWarning,0812.7,5.00,000.00,025.7,025.2,000.0,033.9,027.5,015.2,0000.0,0009.92,0003.81,0002.43
2024-05-06 05:45:00,SystemResetWarning,0812.7,5.00,000.00,025.7,024.8,000.0,034.0,027.2,015.3,0000.0,0009.58,0003.78,0002.43
2024-05-06 05:46:00,SystemResetWarning,0812.6,5.00,000.00,025.4,022.6,000.0,034.0,026.0,015.5,0000.0,0009.53,0003.73,0002.40
2024-05-06 05:47:00,SystemResetWarning,0812.6,5.01,000.00,025.0,021.9,000.0,034.0,025.6,015.9,0000.0,0009.13,0003.71,0002.39
2024-05-06 05:48:00,SystemResetWarning,0812.6,5.01,000.00,024.8,022.1,000.0,033.8,025.6,016.1,0000.0,0009.20,0003.73,0002.40
2024-05-06 05:49:00,SystemResetWarning,0812.7,4.99,000.00,024.8,022.5,000.0,033.7,025.9,016.2,0000.0,0009.21,0003.74,0002.40
2024-05-06 05:50:00,SystemResetWarning,0812.6,4.99,000.00,024.8,022.8,000.0,033.6,026.1,016.3,0000.0,0009.38,0003.77,0002.40
2024-05-06 05:51:00,SystemResetWarning,0812.6,5.00,000.00,024.8,023.1,000.0,033.5,026.3,016.3,0000.0,0009.98,0003.81,0002.43
2024-05-06 05:52:00,SystemResetWarning,0812.6,5.01,000.00,024.8,023.4,000.0,033.4,026.4,016.3,0000.0,0010.22,0003.79,0002.41
2024-05-06 05:53:00,SystemResetWarning,0812.6,5.00,000.00,024.9,023.6,000.0,033.4,026.5,016.3,0000.0,0010.13,0003.84,0002.41
2024-05-06 05:54:00,SystemResetWarning,0812.6,5.00,000.00,024.9,023.8,000.0,033.4,026.6,016.3,0000.0,0010.38,0003.89,0002.41
2024-05-06 05:55:00,SystemResetWarning,0812.6,5.00,000.00,024.9,023.9,000.0,033.4,026.6,016.4,0000.0,0010.36,0003.94,0002.40
2024-05-06 05:56:00,SystemResetWarning,0812.5,5.00,000.00,024.9,024.1,000.0,033.4,026.7,016.4,0000.0,0010.12,0003.91,0002.40
2024-05-06 05:57:00,SystemResetWarning,0812.5,5.00,000.00,025.0,024.2,000.0,033.4,026.7,016.3,0000.0,0010.10,0003.96,0002.43
2024-05-06 05:58:00,SystemResetWarning,0812.5,5.00,000.00,025.0,024.3,000.0,033.4,026.8,016.4,0000.0,0010.31,0004.01,0002.46
2024-05-06 05:59:00,SystemResetWarning,0812.5,5.00,000.00,025.0,024.3,000.0,033.4,026.9,016.3,0000.0,0010.28,0003.98,0002.44
